Location: Gairloch Mountain Observatory
(46.1383°N, 60.9640°W)
Time: 07:37:55
(UTC-04:00)

CENTAUR R/B - Visible Passes

Search period start: 27 February 2015 00:00
Search period end: 09 March 2015 01:00
Orbit: 887 x 1302 km, 63.5° (Epoch: 21 February)

Date Brightness Start Highest point End Pass type
(mag) Time Alt. Az. Time Alt. Az. Time Alt. Az.
27 Feb 3.5 19:48:38 10° NNW 19:55:42 44° NE 19:57:53 37° ENE visible
27 Feb 3.6 21:39:19 10° NW 21:45:05 51° WNW 21:45:05 51° WNW visible
28 Feb 3.8 19:00:29 10° NNW 19:07:02 33° NNE 19:11:36 19° E visible
28 Feb 2.9 20:51:04 10° NW 20:58:43 89° SW 20:58:49 88° SSE visible
28 Feb 4.9 22:42:54 10° WNW 22:46:02 20° W 22:46:02 20° W visible
01 Mar 4.1 18:12:15 10° NNW 18:18:14 26° NNE 18:24:40 10° ENE visible
01 Mar 3.0 20:02:55 10° NW 20:10:25 65° NE 20:12:37 48° ESE visible
01 Mar 4.1 21:54:01 10° NW 21:59:50 35° W 21:59:50 35° W visible
02 Mar 3.4 19:14:47 10° NNW 19:21:57 47° NE 19:26:28 25° E visible
02 Mar 3.3 21:05:32 10° NW 21:13:00 56° WSW 21:13:42 54° SW visible
02 Mar 5.3 22:59:51 10° W 23:00:55 11° W 23:00:55 11° W visible
03 Mar 3.7 18:26:39 10° NNW 18:33:20 35° NNE 18:40:25 10° E visible
03 Mar 3.0 20:17:14 10° NW 20:24:53 82° SW 20:27:39 46° SSE visible
03 Mar 4.8 22:09:20 10° WNW 22:14:53 21° WSW 22:14:53 21° WSW visible
04 Mar 3.0 19:29:03 10° NW 19:36:37 71° NE 19:41:42 25° SE visible
04 Mar 4.2 21:20:18 10° NW 21:27:05 33° WSW 21:28:56 30° SW visible
05 Mar 3.3 18:40:56 10° NW 18:48:12 51° NE 18:55:51 11° ESE visible
05 Mar 3.6 20:31:45 10° NW 20:39:08 51° WSW 20:43:06 29° S visible
06 Mar 3.1 19:43:25 10° NW 19:51:03 76° SW 19:57:23 18° SSE visible
06 Mar 5.0 21:35:51 10° WNW 21:40:59 18° WSW 21:44:39 13° SW visible
07 Mar 3.0 18:55:13 10° NW 19:02:49 77° NE 19:10:55 10° SE visible
07 Mar 4.5 20:46:37 10° NW 20:53:11 30° WSW 20:59:07 12° SSW visible
08 Mar 3.9 20:57:58 10° NW 21:05:15 46° WSW 21:12:48 10° S visible
